Regional Weather Roundup
Issued by NWS

Home | Current Version | Previous Version | Graphics & Text | Print | Product List | Glossary On
Versions: 1 2 3 4 5 6 7 8 9 10 11 12 13 14 15 16 17 18 19 20 21 22 23 24 25 26 27 28 29 30 31 32 33 34 35 36 37 38 39 40 41 42 43 44 45 46 47 48 49 50
000
ASUS43 KBIS 040910
RWRND

NORTH DAKOTA REGIONAL WEATHER ROUNDUP
NATIONAL WEATHER SERVICE BISMARCK ND
400 AM CDT FRI SEP 04 2015

NOTE: "FAIR" INDICATES FEW OR NO CLOUDS BELOW 12,000 FEET WITH NO
SIGNIFICANT WEATHER AND/OR OBSTRUCTIONS TO VISIBILITY.


NDZ001>003-009>011-017-041000-
NORTHWEST NORTH DAKOTA

CITY           SKY/WX    TMP DP  RH WIND       PRES   REMARKS
WILLISTON      CLOUDY    65  43  44 NE12G22   29.82S
MINOT          MOCLDY    67  62  84 NW15G23   29.75R
MINOT AFB      CLOUDY    68  67  98 NW17      29.74R
$$

NDZ018>021-031>035-040>046-041000-
SOUTHWEST NORTH DAKOTA

CITY           SKY/WX    TMP DP  RH WIND       PRES   REMARKS
BISMARCK         N/A     74  71  91 SE12      29.71S
DICKINSON      CLOUDY    68  64  87 N14       29.76R
GARRISON         N/A     67  64  90 NW12      29.74R
HETTINGER ARPT CLOUDY    70  57  63 CALM      29.73R
$$

NDZ004>008-012>016-024-026-027-054-041000-
NORTHEAST NORTH DAKOTA

CITY           SKY/WX    TMP DP  RH WIND       PRES   REMARKS
GRAND FORKS    PTCLDY    73  71  93 SE10      29.77S
GRND FRKS AFB  CLOUDY    76  73  91 S9        29.77S
DEVILS LAKE    MOCLDY    73  66  78 SW3       29.75R
$$

NDZ022-023-025-028>030-036>039-047>053-041000-
SOUTHEAST NORTH DAKOTA

CITY           SKY/WX    TMP DP  RH WIND       PRES   REMARKS
FARGO          CLEAR     76  72  87 SE13      29.77S
JAMESTOWN      MOCLDY    73  71  93 SE10      29.75R
$$




USA.gov is the U.S. government's official web portal to all federal, state and local government web resources and services.